Regional Weather Roundup
Issued by NWS

Home | Current Version | Previous Version | Graphics & Text | Print | Product List | Glossary On
Versions: 1 2 3 4 5 6 7 8 9 10 11 12 13 14 15 16 17 18 19 20 21 22 23 24 25 26 27 28 29 30 31 32 33 34 35 36 37 38 39 40 41 42 43 44 45 46 47 48 49 50
000
ASUS43 KFSD 260402
RWRSD

WEATHER ROUNDUP FOR SOUTH DAKOTA
NATIONAL WEATHER SERVICE SIOUX FALLS SD
1100 PM CDT TUE APR 25 2017

NOTE: "FAIR" INDICATES FEW OR NO CLOUDS BELOW 12,000 FEET WITH NO
SIGNIFICANT WEATHER AND/OR OBSTRUCTIONS TO VISIBILITY.


SDZ001>005-009-010-012>017-260500-
NORTHWEST AND NORTH CENTRAL SOUTH DAKOTA

CITY           SKY/WX    TMP DP  RH WIND       PRES   REMARKS
BUFFALO          N/A     30  25  81 N8        29.86S WCI  22
FAITH            N/A     30  27  88 N10       29.89S WCI  21
MOBRIDGE       CLOUDY    34  25  69 N18G28    29.84S WCI  23
$$

SDZ012>016-024>037-041>051-057-063-072>074-260500-
SOUTHWEST AND SOUTH CENTRAL SOUTH DAKOTA

CITY           SKY/WX    TMP DP  RH WIND       PRES   REMARKS
RAPID CTY ARPT FLURRIES  28  25  88 N16       29.92R WCI  16
PIERRE         CLOUDY    32  28  85 N13       29.86R WCI  22
CUSTER         LGT SNOW  25  22  88 VRB3      29.81R FOG
ELLSWORTH AFB  LGT SNOW  28  28 100 N16       29.91  FOG     WCI  16
PHILIP         CLOUDY    31  28  89 NW13      29.91R WCI  21
PINE RIDGE     CLOUDY    28  25  88 N9        29.89R WCI  19
SPEARFISH      FLURRIES  25  25 100 NW6       29.92R WCI  18
WINNER         CLOUDY    33  30  88 NW17G25   29.82S WCI  22
$$

SDZ004>011-016>023-039-040-260500-
NORTHEAST SOUTH DAKOTA

CITY           SKY/WX    TMP DP  RH WIND       PRES   REMARKS
ABERDEEN       CLOUDY    33  26  75 N18G26    29.81S WCI  22
WATERTOWN      CLOUDY    32  31  96 N18       29.69F WCI  20
BROOKINGS      LGT RAIN  35  33  92 N17       29.67S WCI  25
SISSETON         N/A     34  31  88 N22       29.74F WCI  22
$$

SDZ017-020-022-023-036>040-048>070-260500-
SOUTHEAST SOUTH DAKOTA

CITY           SKY/WX    TMP DP  RH WIND       PRES   REMARKS
SIOUX FALLS    CLOUDY    37  37 100 N17       29.66S
HURON          CLOUDY    33  31  92 N17G24    29.77S WCI  22
CHAMBERLAIN    CLOUDY    36  31  85 NW15      29.81S
MITCHELL       CLOUDY    35  32  88 N21G26    29.76S WCI  24
YANKTON        CLOUDY    36  32  87 NW18G26   29.71R
$$

ABBREVIATIONS USED IN REMARKS
   TC - TEMPERATURE IN CELSIUS
  WCI - WIND CHILL INDEX
   HX - HEAT INDEX
  VSB - VISIBILITY




USA.gov is the U.S. government's official web portal to all federal, state and local government web resources and services.